FW4522 Weather Reports


time (UTC)temp
C
wind
direction
speed
KPH
gust
KPH
rain 1hr
cm
rain 24hr
cm
rain mn
cm
humidity
%
barometer
mb
20260905223052 14 360 3.2 12.9 0.00 0.10 0.00 67 1024.8
20260905221554 15 360 3.2 12.9 0.00 0.10 0.00 67 1024.8
20260905220048 15 360 1.6 9.7 0.00 0.10 0.00 68 1024.8
20260905214546 15 360 1.6 12.9 0.00 0.10 0.10 67 1024.6
20260905213053 16 360 3.2 9.7 0.00 0.10 0.10 66 1024.4
20260905211548 16 360 4.8 14.5 0.00 0.10 0.10 68 1024.2
20260905210045 16 360 4.8 14.5 0.00 0.10 0.10 69 1024.0
20260905204544 16 360 4.8 12.9 0.00 0.10 0.10 70 1023.9
20260905203053 16 360 4.8 14.5 0.00 0.10 0.10 70 1023.7
20260905201555 16 360 6.4 12.9 0.00 0.10 0.10 70 1023.5
20260905200041 16 360 6.4 14.5 0.00 0.10 0.10 69 1023.3
20260905194539 17 360 8.0 17.7 0.00 0.10 0.10 68 1023.2
20260905193039 17 360 12.9 16.1 0.00 0.10 0.10 67 1022.9
20260905191537 17 360 11.3 17.7 0.00 0.10 0.10 66 1022.7
20260905190037 17 360 11.3 17.7 0.00 0.10 0.10 66 1022.5
20260905184537 18 360 12.9 19.3 0.00 0.10 0.10 64 1022.1
20260905183041 18 360 11.3 19.3 0.00 0.10 0.10 64 1022.1
20260905181532 18 360 11.3 20.9 0.00 0.10 0.10 63 1021.9
20260905180032 18 360 16.1 22.5 0.00 0.10 0.10 61 1021.7
20260905174529 18 360 14.5 24.1 0.00 0.10 0.10 61 1021.5
20260905173029 19 360 12.9 27.4 0.00 0.10 0.10 59 1021.3
20260905171528 20 360 14.5 29.0 0.00 0.10 0.10 57 1021.3
20260905170028 20 360 20.9 35.4 0.00 0.10 0.10 56 1021.2
20260905164527 20 360 17.7 32.2 0.00 0.10 0.10 55 1021.1
20260905163027 21 360 24.1 41.8 0.00 0.10 0.10 54 1021.1
20260905161526 21 360 20.9 33.8 0.00 0.10 0.10 55 1021.0
20260905160026 21 360 29.0 38.6 0.00 0.10 0.10 53 1020.7
20260905154525 20 360 22.5 35.4 0.00 0.10 0.10 55 1020.7
20260905153024 21 360 25.7 43.5 0.00 0.10 0.10 54 1020.9
20260905151531 21 360 25.7 38.6 0.00 0.10 0.10 54 1020.7
20260905150025 21 360 24.1 35.4 0.00 0.10 0.10 54 1020.6
20260905144532 21 360 22.5 33.8 0.00 0.10 0.10 54 1020.4
20260905143025 21 360 20.9 32.2 0.00 0.10 0.10 54 1020.6
20260905141524 20 360 24.1 37.0 0.00 0.10 0.10 57 1020.8
20260905140022 21 360 24.1 40.2 0.00 0.10 0.10 56 1020.7
20260905134622 21 360 24.1 35.4 0.00 0.10 0.10 55 1020.7
20260905133017 21 360 30.6 40.2 0.00 0.10 0.10 58 1020.9
20260905131517 21 360 25.7 37.0 0.00 0.10 0.10 59 1020.8
20260905130018 20 360 27.4 40.2 0.00 0.10 0.10 60 1021.0
20260905124517 20 360 30.6 41.8 0.00 0.10 0.10 61 1020.9
20260905123014 20 360 25.7 45.1 0.00 0.10 0.10 62 1021.0
20260905121513 20 360 22.5 41.8 0.00 0.10 0.10 64 1021.0
20260905120012 20 360 22.5 38.6 0.00 0.10 0.10 65 1021.0
20260905114512 20 360 24.1 41.8 0.00 0.10 0.10 64 1021.0
20260905113009 19 360 20.9 32.2 0.00 0.10 0.10 67 1021.0
20260905111507 19 360 20.9 29.0 0.00 0.10 0.10 69 1021.0
20260905110006 18 360 16.1 32.2 0.00 0.10 0.10 70 1021.0
20260905104505 18 360 24.1 30.6 0.00 0.10 0.10 68 1021.1
20260905103005 18 360 22.5 35.4 0.00 0.10 0.10 69 1021.0
20260905101505 18 360 24.1 37.0 0.00 0.10 0.10 69 1021.0
20260905100005 18 360 20.9 37.0 0.00 0.10 0.10 71 1021.0
20260905094600 17 360 24.1 33.8 0.00 0.10 0.10 72 1021.1
20260905093059 17 360 19.3 30.6 0.00 0.10 0.10 74 1021.1
20260905091558 17 360 20.9 30.6 0.00 0.10 0.10 75 1021.0
20260905090123 16 360 16.1 25.7 0.00 0.10 0.10 77 1020.9
20260905084552 15 360 11.3 17.7 0.00 0.10 0.10 80 1020.8
20260905083051 15 360 11.3 20.9 0.00 0.10 0.10 81 1020.5
20260905081552 15 360 8.0 17.7 0.03 0.10 0.10 84 1020.4
20260905080051 14 360 8.0 16.1 0.03 0.10 0.10 87 1020.4
20260905074551 13 360 8.0 16.1 0.03 0.10 0.10 87 1020.3
20260905073050 13 360 11.3 16.1 0.03 0.10 0.10 87 1020.1
20260905071549 13 360 8.0 17.7 0.03 0.10 0.10 86 1019.5
20260905070049 13 360 6.4 9.7 0.00 0.08 0.08 86 1019.2
20260905064547 13 360 4.8 12.9 0.05 0.08 0.08 85 1019.6
20260905063046 13 360 4.8 12.9 0.05 0.08 0.08 84 1019.5
20260905061545 12 360 4.8 12.9 0.05 0.08 0.08 83 1019.5
20260905060048 13 360 3.2 17.7 0.05 0.08 0.08 82 1019.7
20260905054543 13 360 6.4 20.9 0.03 0.05 0.05 82 1020.5
20260905053042 13 360 4.8 9.7 0.00 0.03 0.03 82 1019.9
20260905051538 13 360 3.2 8.0 0.00 0.03 0.03 82 1019.3
20260905050035 13 360 0.0 4.8 0.00 0.03 0.03 81 1019.1
20260905044535 13 360 1.6 6.4 0.03 0.03 0.03 80 1019.1
20260905043032 14 360 1.6 12.9 0.03 0.03 0.03 79 1018.6
20260905041546 15 360 3.2 12.9 0.03 0.03 0.03 78 1018.5
20260905040032 15 360 3.2 17.7 0.03 0.03 0.03 76 1018.5
20260905034529 16 360 4.8 14.5 0.03 0.03 0.03 74 1018.4
20260905033027 16 360 3.2 16.1 0.00 0.00 0.00 69 1017.9
20260905031527 17 360 8.0 16.1 0.00 0.00 0.00 68 1017.2
20260905030028 17 360 8.0 16.1 0.00 0.00 0.00 69 1017.2
20260905024531 17 360 4.8 16.1 0.00 0.00 0.00 70 1017.3
20260905023026 17 360 8.0 25.7 0.00 0.00 0.00 70 1016.9
20260905021530 17 360 11.3 22.5 0.00 0.00 0.00 72 1016.4
20260905020022 17 360 9.7 24.1 0.00 0.00 0.00 74 1016.1
20260905014519 18 360 12.9 32.2 0.00 0.00 0.00 74 1015.7
20260905013016 15 360 0.0 0.0 0.00 0.00 0.00 84 1014.8
20260905011513 15 360 0.0 0.0 0.00 0.00 0.00 84 1014.6
20260905010014 15 360 0.0 0.0 0.00 0.00 0.00 84 1014.5
20260905004511 15 360 0.0 0.0 0.00 0.00 0.00 83 1014.4
20260905003011 15 360 0.0 0.0 0.00 0.00 0.00 83 1014.1
20260905001512 15 360 0.0 0.0 0.00 0.00 0.00 82 1013.9
20260905000008 15 360 0.0 0.0 0.00 0.00 0.00 82 1014.0
20260904234505 14 360 0.0 1.6 0.00 0.00 0.00 80 1013.9
20260904233005 13 360 0.0 0.0 0.00 0.00 0.00 79 1013.9
20260904231504 13 360 0.0 0.0 0.00 0.00 0.00 78 1013.9
20260904230002 13 360 0.0 0.0 0.00 0.00 0.00 79 1013.9
20260904224501 13 360 0.0 0.0 0.00 0.00 0.00 79 1013.7